AO-07 1 07530U 74089B 25287.27466470 -.00000030 00000-0 10569-3 0 9991 2 07530 101.9988 292.9085 0011934 240.1326 131.9349 12.53692413329701 UO-11 1 14781U 84021B 25287.15887145 .00002163 00000-0 23087-3 0 9994 2 14781 97.7714 251.1565 0006076 281.4315 78.6220 14.89835121220489 AO-27 1 22825U 93061C 25287.28032022 .00000186 00000-0 87946-4 0 9994 2 22825 98.7229 349.3826 0009517 101.0316 259.1937 14.30844654671837 FO-29 1 24278U 96046B 25287.25606724 -.00000013 00000-0 22552-4 0 9999 2 24278 98.5530 164.3585 0350266 14.4888 346.5991 13.53256697439901 NOAA-15 1 25338U 98030A 25287.30208106 .00000219 00000-0 10757-3 0 9990 2 25338 98.5289 309.3493 0010051 354.8536 5.2540 14.27035085426223 GO-32 1 25397U 98043D 25287.20826906 .00000144 00000-0 82414-4 0 9999 2 25397 98.9865 269.0611 0001237 155.6571 204.4666 14.24351807416319 ISS 1 25544U 98067A 25287.13854773 .00012051 00000-0 21940-3 0 9990 2 25544 51.6332 77.5406 0000778 266.1047 93.9852 15.49921516533616 NO-44 1 26931U 01043C 25287.01310491 .00000220 00000-0 11336-3 0 9993 2 26931 67.0501 160.9290 0007118 273.5841 86.4446 14.31804629255200 SO-50 1 27607U 02058C 25287.09471503 .00002044 00000-0 26473-3 0 9995 2 27607 64.5527 169.8955 0068322 307.7794 51.7135 14.82077969227976 CO-55 1 27844U 03031E 25287.08187917 .00000481 00000-0 22805-3 0 9990 2 27844 98.6789 293.7479 0009669 173.6634 186.4669 14.24104601156640 CO-57 1 27848U 03031J 25286.73847048 .00000384 00000-0 18848-3 0 9997 2 27848 98.6817 293.3180 0009189 192.5104 167.5848 14.23423396156317 RS-22 1 27939U 03042A 25287.27330008 .00001928 00000-0 31025-3 0 9990 2 27939 98.3378 99.9038 0010849 333.8948 128.2967 14.72714110179345 CO-58 1 28895U 05043F 25286.67951205 .00002815 00000-0 46116-3 0 9999 2 28895 98.2678 72.7755 0013316 267.1236 92.8447 14.71525345 65482 CO-65 1 32785U 08021C 25287.25858561 .00007793 00000-0 53876-3 0 9998 2 32785 97.8020 259.5759 0011045 133.9146 226.2994 15.05956314948131 CO-66 1 32791U 08021J 25287.14765611 .00018945 00000-0 82042-3 0 9994 2 32791 97.7411 270.3852 0006494 91.0510 269.1469 15.22439478949722 RS-30 1 32953U 08025A 25287.31732648 .00000025 00000-0 10715-3 0 9999 2 32953 82.5026 148.3844 0019655 126.5588 233.7305 12.43169393789143 NOAA-19 1 33591U 09005A 25287.27339480 .00000076 00000-0 64530-4 0 9990 2 33591 98.9843 352.6110 0013818 10.3377 349.8076 14.13417773859742 SRMSAT 1 37841U 11058D 25286.85303660 .00000481 00000-0 11770-3 0 9994 2 37841 19.9711 110.3894 0011771 14.0368 14.3762 14.11480168722972 ZACUBE-1 1 39417U 13066B 25287.16626695 .00009574 00000-0 79878-3 0 9992 2 39417 97.7955 243.6984 0042382 352.5855 7.4735 14.98087404643853 Delfi-N3xt 1 39428U 13066N 25287.28804398 .00011427 00000-0 11072-2 0 9996 2 39428 97.8281 203.6177 0079881 303.8261 55.5370 14.90466798637932 GOMX-1 1 39430U 13066Q 25287.27679584 .00002946 00000-0 45594-3 0 9998 2 39430 97.6673 138.1190 0131904 146.1562 214.8151 14.68205654633819 LO-74 1 39440U 13066AA 25287.29902009 .00005467 00000-0 53806-3 0 9998 2 39440 97.8602 231.1239 0062214 120.6321 240.1052 14.91040863640319 AO-73 1 39444U 13066AE 25287.15897261 .00012325 00000-0 86979-3 0 9998 2 39444 97.7983 249.8004 0038450 322.3406 37.5129 15.04494279642606 DTUSAT-2 1 40030U 14033W 25287.20255532 .00010950 00000-0 67163-3 0 9997 2 40030 98.0708 265.4009 0008835 8.3978 351.7396 15.10298393615496 EO-80 1 40032U 14033Y 25287.21596450 .00010454 00000-0 64021-3 0 9996 2 40032 98.0587 264.8933 0006213 301.5354 58.5266 15.10383506615473 LILACSAT-2 1 40908U 15049K 25287.22204453 .00017896 00000-0 41655-3 0 9991 2 40908 97.4999 310.8545 0010323 70.7711 289.4652 15.42299243557721 IO-86 1 40931U 15052B 25151.18580175 .00001241 00000-0 78118-4 0 9996 2 40931 6.0006 24.0987 0012733 338.8432 21.1169 14.78805930523159 Horyu-4 1 41340U 16012D 25287.27072323 .00042499 00000-0 89053-3 0 9998 2 41340 30.9965 356.2286 0003288 309.9295 50.1064 15.44162222532337 Lapan A3 1 41603U 16040E 25287.29141098 .00004949 00000-0 16808-3 0 9995 2 41603 97.1434 287.0382 0011131 165.9670 194.1883 15.30872646517161 CAS-2T 1 41847U 16066G 25287.17164077 .00002659 00000-0 38266-3 0 9990 2 41847 98.4092 0.4929 0345294 155.2360 206.5858 14.43880919469281 CAS-4B 1 42759U 17034B 25286.97241530 .03437790 89859-5 10544-2 0 9999 2 42759 42.9888 273.3261 0008257 129.3938 230.7682 16.25684504462550 CAS-4A 1 42761U 17034D 25281.34159269 .04203186 90411-5 12507-2 0 9993 2 42761 42.9927 303.5081 0008135 81.2710 278.9099 16.26032227461692 TechnoSat 1 42829U 17042E 25287.27901475 .00006294 00000-0 47421-3 0 9990 2 42829 97.4001 90.0882 0018158 212.6869 147.3234 15.02689840449747 AO-91 1 43017U 17073E 25287.18842383 .00012226 00000-0 59250-3 0 9991 2 43017 97.5024 154.7976 0167523 94.4234 267.6154 15.07071376428263 S-Net D 1 43186U 18014G 25287.26367801 .00007709 00000-0 43627-3 0 9991 2 43186 97.5480 188.8811 0009963 138.3605 221.8386 15.13283858421523 S-Net B 1 43187U 18014H 25287.27080414 .00008117 00000-0 45936-3 0 9994 2 43187 97.5482 188.8657 0010716 134.9735 225.2366 15.13260486421526 S-Net A 1 43188U 18014J 25287.26361630 .00007687 00000-0 43490-3 0 9990 2 43188 97.5494 189.0263 0010645 135.5216 224.6871 15.13289177421520 S-Net C 1 43189U 18014K 25287.27354874 .00008209 00000-0 46440-3 0 9993 2 43189 97.5503 189.0720 0012370 130.3907 229.8406 15.13253942420078 Ten-Koh 1 43677U 18084G 25287.26852516 .00003452 00000-0 27347-3 0 9997 2 43677 98.0732 104.5445 0008696 193.8340 166.2646 15.01256944379241 PO-101 1 43678U 18084H 25287.25126618 .00003952 00000-0 33139-3 0 9995 2 43678 98.1074 108.3184 0007346 210.4552 149.6244 14.98988136379357 QO-100 1 43700U 18090A 25287.27755154 .00000130 00000-0 00000-0 0 9996 2 43700 0.0147 251.1588 0002027 353.7949 263.8584 1.00271583 25212 MinXSS-2 1 43758U 18099A 25287.27131666 .00026866 00000-0 90690-3 0 9995 2 43758 97.4878 353.9854 0011453 72.9494 287.3001 15.30597655376315 AO-95 1 43770U 18099N 25287.11833258 .00014920 00000-0 69581-3 0 9991 2 43770 97.4768 343.9017 0011346 128.0300 232.1961 15.19905458375758 SNUSat 2 1 43782U 18099AA 25287.11485105 .00011358 00000-0 58081-3 0 9993 2 43782 97.4449 339.5790 0012932 77.9581 282.3101 15.16739161375667 SnugLite 1 43784U 18099AC 25287.25166348 .00013835 00000-0 63957-3 0 9995 2 43784 97.4262 339.5704 0004738 82.6311 277.5463 15.20271734375867 ITASat 1 1 43786U 18099AE 25287.13829294 .00009399 00000-0 50855-3 0 9993 2 43786 97.4425 338.7186 0015268 125.4454 234.8206 15.14765802375609 EAGLET 1 1 43790U 18099AJ 25287.22395077 .00006868 00000-0 42252-3 0 9995 2 43790 97.4619 338.2970 0013182 112.5612 247.7014 15.10263804375174 ESEO 1 43792U 18099AL 25287.10897719 .00002414 00000-0 18266-3 0 9995 2 43792 97.4345 329.7102 0014906 92.4982 267.7950 15.03143442374824 JO-97 1 43803U 18099AX 25287.25664645 .00018268 00000-0 74975-3 0 9997 2 43803 97.4513 345.3536 0008046 68.1549 292.0544 15.24250817376040 Suomi 100 1 43804U 18099AY 25287.23111334 .00015502 00000-0 69558-3 0 9997 2 43804 97.4579 344.2194 0012905 70.3137 289.9490 15.21207822375935 ISAT 1 43879U 18111D 25287.30614404 .00035765 00000-0 10097-2 0 9994 2 43879 97.5871 204.9065 0010957 103.1226 257.1241 15.36234413373101 UWE-4 1 43880U 18111E 25287.27759461 .00024801 00000-0 83784-3 0 9998 2 43880 97.5813 202.3488 0013314 116.7888 243.4716 15.30568550372979 Sparrow 1 43881U 18111F 25287.30185942 .00038552 00000-0 10296-2 0 9995 2 43881 97.6042 208.3276 0008505 126.0226 234.1808 15.37965784373216 Prox-1 1 44339U 19036A 25287.13531447 .00015232 00000-0 17977-2 0 9990 2 44339 23.9970 308.8506 0007377 83.6001 276.5337 14.82983445336808 Taurus 1 1 44530U 19059C 25287.35319906 .00009667 00000-0 17031-2 0 9992 2 44530 98.6205 73.0126 0008743 2.4109 357.7135 14.67741712322520 Duchifat 3 1 44854U 19089C 25287.27054608 .00157419 00000-0 15255-2 0 9995 2 44854 36.9349 261.6749 0008854 225.5920 134.4118 15.64905060322720 TO-108 1 44881U 19093C 25287.31009434 .00001555 00000-0 18425-3 0 9994 2 44881 97.7819 0.2591 0013935 169.8229 190.3272 14.85896163314893 FloripaSat 1 1 44885U 19093G 25287.30033623 .00008295 00000-0 66918-3 0 9992 2 44885 97.8087 15.2513 0010758 152.8471 207.3317 15.00090690315738 RS-44 1 44909U 19096E 25287.12836761 .00000016 00000-0 21510-4 0 9999 2 44909 82.5201 143.2254 0217600 359.9717 0.1336 12.79744512270873 UPMSat 2 1 46276U 20061E 25284.11510829 .12115553 24945-5 13983-3 0 9991 2 46276 97.2106 5.1352 0012001 257.8540 102.1421 16.49625583285008 SALSAT 1 46495U 20068K 25287.17230981 .00011245 00000-0 45464-3 0 9998 2 46495 97.8751 271.3119 0013133 84.1560 276.1173 15.24836989277802 CSS (TIANHE-1) 1 48274U 21035A 25287.29779938 .00038306 00000-0 43228-3 0 9996 2 48274 41.4665 17.9295 0003247 242.0891 117.9619 15.61744899254748 TUBIN 1 48900U 21059X 25286.16738369 .00137706 00000-0 85464-3 0 9998 2 48900 97.6748 106.8798 0002004 132.2420 227.9015 15.76612366239703 LEDSAT 1 49069U 21073D 25287.22280012 .04779575 24522-5 11441-2 0 9999 2 49069 97.3520 16.6384 0010161 280.7229 79.2921 16.29438138231363 CUTE 1 49263U 21088D 25287.03467951 .00040370 00000-0 63113-3 0 9993 2 49263 97.4394 7.4287 0007039 127.3829 232.8066 15.53650626224016 TeikyoSat 4 1 49396U 21102B 25287.09906102 .00003230 00000-0 21210-3 0 9995 2 49396 97.3991 320.9249 0013914 63.6238 296.6417 15.08239499215616 Z-Sat 1 49399U 21102E 25287.24131536 .00006205 00000-0 32869-3 0 9993 2 49399 97.3679 324.9777 0018323 29.9535 330.2742 15.15611802216152 KOSEN 1 1 49402U 21102H 25287.10789524 .00009126 00000-0 39864-3 0 9996 2 49402 97.3570 329.2662 0015013 2.7340 357.3975 15.22230807216523 HO-113 1 50466U 21131B 25287.28409725 .00000916 00000-0 29880-3 0 9996 2 50466 98.5073 16.0055 0005247 113.0982 247.0761 14.40988821199690 SNUGLITE 2 1 52899U 22065F 25287.32879596 .00001970 00000-0 38852-3 0 9997 2 52899 98.1871 68.2272 0008644 78.4497 281.7676 14.63582355175021 UmKA 1 (RS40S) 1 57172U 23091G 25287.26751346 .00007936 00000-0 40422-3 0 9995 2 57172 97.5432 342.0102 0012396 253.5901 106.3969 15.16998345126679 CubeBel-2 (EU11S) 1 57175U 23091K 25287.25973320 .00013524 00000-0 59405-3 0 9996 2 57175 97.5430 343.9998 0010031 257.8747 102.1365 15.22001113126806 ENSO 1 58470U 23185J 25286.99676613 .00315332 00000-0 14127-2 0 9997 2 58470 97.3538 7.7888 0004942 287.2111 72.8618 15.83344704104804 SONATE-2 1 59112U 24043Q 25287.31223020 .00028620 00000-0 69410-3 0 9999 2 59112 97.5288 61.5566 0009902 23.8204 336.3498 15.40968303 89818 MO-122 1 60209U 24125G 25287.22215917 .00029221 00000-0 69102-3 0 9991 2 60209 97.2621 137.7346 0017822 45.1578 315.1114 15.41606172 71420 GRBBeta 1 60237U 24128C 25287.32700283 .00005600 00000-0 40491-3 0 9996 2 60237 61.9926 357.2631 0056938 84.0629 276.6948 15.03929918 69251 Curium One 1 60242U 24128H 25287.32138522 .00009750 00000-0 63139-3 0 9997 2 60242 61.9821 353.4533 0056632 80.5135 280.2353 15.07380053 69328 ROBUSTA-3A 1 60243U 24128J 25287.30086577 .00009398 00000-0 61908-3 0 9998 2 60243 61.9896 354.8115 0056508 78.0188 282.7231 15.06795950 69309 CatSat 1 60246U 24125J 25287.06951725 .00032901 00000-0 93546-3 0 9996 2 60246 97.2437 135.2945 0038082 5.3039 354.8600 15.35344189 69354 HYPERVIEW-1G (RS66S) 1 61772U 24199AP 25287.27812480 .00035605 00000-0 83142-3 0 9994 2 61772 97.3301 156.2113 0014048 95.0518 265.2333 15.42011143 96430 AO-123 1 61781U 24199AY 25287.26565896 .00009777 00000-0 33422-3 0 9996 2 61781 97.3330 153.4149 0017016 105.7910 254.5209 15.30341025 96247 ZIMSAT 2 1 61783U 24199BA 25287.28912056 .00089915 00000-0 13694-2 0 9994 2 61783 97.3232 158.2379 0012880 88.3111 271.9618 15.54101144 99726 HADES-R (SO-124) 1 62690U 25009CK 25287.29038355 .00083035 00000-0 19209-2 0 9990 2 62690 97.3974 8.4349 0001481 328.6881 31.4277 15.42169415 41571 HYDRA-T 1 62692U 25009CM 25287.30876286 .00087439 00000-0 19794-2 0 9998 2 62692 97.3972 8.5627 0001599 311.4480 48.6630 15.42801966 41584 JINJUSat 1B 1 63210U 25052A 25287.21960802 .00016756 00000-0 69272-3 0 9992 2 63210 97.4224 179.8583 0002081 203.4201 156.6942 15.24050308 32518 NUSHSAT 1 1 63211U 25052B 25287.18221482 .00021468 00000-0 86912-3 0 9999 2 63211 97.4213 179.8784 0001764 212.0447 148.0684 15.24703930 32519 TEVEL2-4 1 63213U 25052D 25287.22633409 .00018303 00000-0 75252-3 0 9991 2 63213 97.4130 179.5898 0000543 243.0057 117.1125 15.24217187 32518 TEVEL2-5 1 63214U 25052E 25287.22946793 .00018417 00000-0 75833-3 0 9996 2 63214 97.4131 179.5863 0000534 245.0506 115.0676 15.24167474 32514 TEVEL2-6 1 63215U 25052F 25287.16930460 .00019106 00000-0 78750-3 0 9991 2 63215 97.4130 179.5176 0000587 250.8552 109.2622 15.24124740 32508 TEVEL2-1 1 63217U 25052H 25287.26599481 .00018985 00000-0 78896-3 0 9993 2 63217 97.4105 179.4718 0001013 309.1397 50.9750 15.23849262 32510 TEVEL2-3 1 63218U 25052J 25287.26585255 .00018884 00000-0 78449-3 0 9990 2 63218 97.4107 179.4746 0001060 311.4287 48.6859 15.23861914 32512 TEVEL2-2 1 63219U 25052K 25287.26675852 .00018820 00000-0 78216-3 0 9996 2 63219 97.4106 179.4724 0001055 309.6246 50.4898 15.23847197 32517 TEVEL2-9 1 63237U 25052AD 25287.17429782 .00019416 00000-0 83939-3 0 9995 2 63237 97.4168 179.1652 0005445 305.2104 54.8622 15.22492174 32472 TEVEL2-7 1 63238U 25052AE 25287.18316305 .00018108 00000-0 78568-3 0 9992 2 63238 97.4172 179.1584 0005510 304.6404 55.4313 15.22383719 32479 TEVEL2-8 1 63239U 25052AF 25287.25345602 .00018072 00000-0 78474-3 0 9999 2 63239 97.4172 179.2154 0005546 304.6921 55.3792 15.22355653 32484 HYDRA-W 1 63490U 25052BL 25285.93662568 .00070828 00000-0 22684-2 0 9992 2 63490 97.4105 179.2897 0006352 303.2555 56.8077 15.32094284 32389 HADES-ICM (SO-125) 1 63492U 25052BN 25285.80884399 .00063796 00000-0 21138-2 0 9997 2 63492 97.4113 179.0200 0007028 308.1170 51.9437 15.31028346 32352